TimeEDT,TemperatureF,Dew PointF,Humidity,Sea Level PressureIn,VisibilityMPH,Wind Direction,Wind SpeedMPH,Gust SpeedMPH,PrecipitationIn,Events,Conditions,WindDirDegrees,DateUTC
12:55 AM,75.0,75.0,100,30.15,10.0,ESE,10.4,-,N/A,,Clear,110,2012-10-04 04:55:00
1:55 AM,74.7,74.7,100,30.16,10.0,ESE,8.1,-,N/A,,Clear,110,2012-10-04 05:55:00
2:55 AM,74.3,74.3,100,30.14,10.0,ESE,8.1,-,N/A,,Clear,110,2012-10-04 06:55:00
3:55 AM,74.3,74.3,100,30.12,10.0,East,5.8,-,N/A,,Clear,100,2012-10-04 07:55:00
4:55 AM,73.9,73.9,100,30.13,10.0,East,6.9,-,N/A,,Clear,100,2012-10-04 08:55:00
5:55 AM,73.9,73.9,100,30.15,10.0,East,8.1,-,N/A,,Clear,100,2012-10-04 09:55:00
6:55 AM,73.6,73.6,100,30.17,10.0,ENE,4.6,-,N/A,,Clear,70,2012-10-04 10:55:00
7:55 AM,73.6,73.6,100,30.18,10.0,ENE,3.5,-,N/A,,Clear,60,2012-10-04 11:55:00
8:55 AM,77.9,77.4,98,30.19,10.0,East,5.8,-,N/A,,Clear,80,2012-10-04 12:55:00
9:55 AM,81.1,78.6,92,30.19,10.0,East,5.8,-,N/A,,Clear,80,2012-10-04 13:55:00
10:55 AM,85.1,79.5,83,30.18,10.0,ESE,6.9,-,N/A,,Clear,120,2012-10-04 14:55:00
11:55 AM,86.4,79.7,80,30.19,10.0,SSE,8.1,-,N/A,,Unknown,150,2012-10-04 15:55:00
12:50 PM,87.8,78.8,75,30.17,10.0,Variable,4.6,-,N/A,,Mostly Cloudy,0,2012-10-04 16:50:00
12:55 PM,88.7,79.3,74,30.17,10.0,South,4.6,-,N/A,,Mostly Cloudy,180,2012-10-04 16:55:00
1:00 PM,89.6,78.8,70,30.17,10.0,South,6.9,-,N/A,,Scattered Clouds,180,2012-10-04 17:00:00
1:55 PM,89.8,78.1,68,30.15,10.0,Calm,Calm,-,N/A,,Mostly Cloudy,0,2012-10-04 17:55:00
1:56 PM,89.6,78.8,70,30.15,10.0,Calm,Calm,-,N/A,,Scattered Clouds,0,2012-10-04 17:56:00
2:55 PM,93.9,79.7,63,30.11,10.0,WNW,8.1,-,N/A,,Clear,300,2012-10-04 18:55:00
3:55 PM,91.8,78.4,65,30.08,10.0,NW,8.1,-,N/A,,Clear,310,2012-10-04 19:55:00
4:55 PM,87.3,79.5,78,30.11,10.0,NNW,9.2,-,N/A,Thunderstorm,Mostly Cloudy,340,2012-10-04 20:55:00
5:16 PM,86.0,77.0,74,30.14,10.0,ESE,21.9,28.8,N/A,Thunderstorm,Thunderstorm,120,2012-10-04 21:16:00
5:18 PM,84.2,77.0,79,30.14,10.0,East,25.3,32.2,N/A,Rain-Thunderstorm,Light Thunderstorms and Rain,100,2012-10-04 21:18:00
5:27 PM,77.0,73.4,89,30.14,2.5,ESE,24.2,32.2,N/A,Rain-Thunderstorm,Light Thunderstorms and Rain,120,2012-10-04 21:27:00
5:29 PM,77.0,73.4,89,30.14,1.5,SE,21.9,32.2,N/A,Rain-Thunderstorm,Light Thunderstorms and Rain,130,2012-10-04 21:29:00
5:30 PM,75.2,73.4,94,30.15,1.2,SE,20.7,32.2,N/A,Rain-Thunderstorm,Light Thunderstorms and Rain,130,2012-10-04 21:30:00
5:32 PM,75.2,73.4,94,30.15,1.0,ESE,20.7,32.2,N/A,Rain-Thunderstorm,Thunderstorms and Rain,120,2012-10-04 21:32:00
5:39 PM,73.4,73.4,100,30.16,0.8,ESE,9.2,27.6,N/A,Rain-Thunderstorm,Heavy Thunderstorms and Rain,110,2012-10-04 21:39:00
5:44 PM,73.4,73.4,100,30.15,0.8,SE,16.1,23.0,N/A,Rain-Thunderstorm,Heavy Thunderstorms and Rain,130,2012-10-04 21:44:00
5:45 PM,73.4,73.4,100,30.15,0.8,SE,18.4,23.0,N/A,Rain-Thunderstorm,Heavy Thunderstorms and Rain,140,2012-10-04 21:45:00
5:51 PM,73.4,73.4,100,30.15,0.5,SE,13.8,25.3,N/A,Fog-Rain-Thunderstorm,Heavy Thunderstorms and Rain,140,2012-10-04 21:51:00
5:55 PM,73.0,73.0,100,30.15,0.5,SSE,19.6,28.8,0.50,Fog-Rain-Thunderstorm,Heavy Thunderstorms and Rain,160,2012-10-04 21:55:00
6:02 PM,73.4,73.4,100,30.15,0.5,SSE,11.5,28.8,N/A,Fog-Rain-Thunderstorm,Heavy Thunderstorms and Rain,160,2012-10-04 22:02:00
6:03 PM,73.4,73.4,100,30.15,0.5,SSE,12.7,27.6,N/A,Fog-Rain-Thunderstorm,Heavy Thunderstorms and Rain,160,2012-10-04 22:03:00
6:08 PM,73.4,73.4,100,30.15,2.0,South,8.1,-,N/A,Rain-Thunderstorm,Heavy Thunderstorms and Rain,190,2012-10-04 22:08:00
6:11 PM,73.4,73.4,100,30.14,3.0,South,8.1,-,N/A,Rain-Thunderstorm,Heavy Thunderstorms and Rain,180,2012-10-04 22:11:00
6:13 PM,73.4,73.4,100,30.14,3.0,South,8.1,-,N/A,Rain-Thunderstorm,Thunderstorms and Rain,180,2012-10-04 22:13:00
6:17 PM,73.4,73.4,100,30.14,5.0,South,6.9,-,N/A,Rain-Thunderstorm,Thunderstorms and Rain,170,2012-10-04 22:17:00
6:19 PM,73.4,73.4,100,30.14,6.0,South,4.6,-,N/A,Rain,Rain,180,2012-10-04 22:19:00
6:35 PM,73.4,73.4,100,30.14,9.0,Calm,Calm,-,N/A,Rain-Thunderstorm,Light Rain,0,2012-10-04 22:35:00
6:45 PM,73.4,73.4,100,30.14,9.0,South,4.6,-,N/A,Thunderstorm,Scattered Clouds,170,2012-10-04 22:45:00
6:55 PM,72.9,72.9,100,30.13,10.0,Calm,Calm,-,0.27,,Partly Cloudy,0,2012-10-04 22:55:00
7:28 PM,73.4,73.4,100,30.12,10.0,East,5.8,-,N/A,Rain,Light Rain,100,2012-10-04 23:28:00
7:39 PM,73.4,73.4,100,30.13,10.0,East,5.8,-,N/A,,Clear,100,2012-10-04 23:39:00
7:55 PM,73.9,73.9,100,30.14,10.0,ESE,6.9,-,0.03,,Partly Cloudy,110,2012-10-04 23:55:00
8:55 PM,73.0,73.0,100,30.15,10.0,ESE,13.8,-,N/A,,Partly Cloudy,120,2012-10-05 00:55:00
9:55 PM,72.0,72.0,100,30.14,10.0,ENE,6.9,-,N/A,,Clear,60,2012-10-05 01:55:00
10:55 PM,72.5,72.5,100,30.15,10.0,East,11.5,-,N/A,,Clear,90,2012-10-05 02:55:00
11:55 PM,71.8,71.8,100,30.14,10.0,ENE,8.1,-,N/A,,Clear,70,2012-10-05 03:55:00